Miscellaneous Local Product
Issued by NWS Hastings, NE

Home | Current Version | Previous Version | Text Only | Print | Product List | Glossary On
Versions: 1 2 3 4 5 6 7 8 9 10 11 12 13 14 15 16 17 18 19 20 21 22 23 24 25 26 27 28 29 30 31 32 33 34 35 36 37 38 39 40 41 42 43 44 45 46 47 48 49 50
000
AXUS43 KGID 252202
MISGRI

GID CWA HOURLY WEATHER ROUNDUP
NATIONAL WEATHER SERVICE HASTINGS NE
500 PM CDT SAT OCT 25 2014

NOTE: "FAIR" INDICATES FEW OR NO CLOUDS BELOW 12,000 FEET WITH NO
SIGNIFICANT WEATHER AND/OR OBSTRUCTIONS TO VISIBILITY.

...SOUTH CENTRAL NEBRASKA...

CITY           SKY/WX    TMP DP  RH WIND       PRES   REMARKS
GRAND ISLAND   SUNNY     74  42  31 E12       30.05F
HASTINGS       SUNNY     76  43  30 E9        30.03F
KEARNEY        SUNNY     75  46  35 E14       30.04F
ORD            SUNNY     71  40  32 E8        30.04F
YORK           SUNNY     70  45  40 E10       30.05F
AURORA         SUNNY     73  38  28 E9        30.05S
LEXINGTON      SUNNY     77  47  34 E10       30.02F
HOLDREGE       SUNNY     77  49  36 E10       30.02S
HEBRON         SUNNY     78  44  29 E9        30.02S

...NEBRASKA PANHANDLE...

CITY           SKY/WX    TMP DP  RH WIND       PRES   REMARKS
CHADRON        SUNNY     73  40  30 E8        29.99F
ALLIANCE       SUNNY     76  36  23 E6        30.02F
SCOTTSBLUFF    SUNNY     77  36  22 E14       30.01F
SIDNEY         SUNNY     77  38  24 SE8       30.06S

...WESTERN AND NORTH CENTRAL NEBRASKA...

CITY           SKY/WX    TMP DP  RH WIND       PRES   REMARKS
VALENTINE      SUNNY     71  31  22 SE13      30.04F
AINSWORTH      SUNNY     68  33  26 E9        30.06F
ONEILL         SUNNY     69  36  29 E8        30.07F
BROKEN BOW     SUNNY     73  45  36 E12G32    30.04F
IMPERIAL       SUNNY     80  37  21 SE15      30.01F
NORTH PLATTE   SUNNY     75  47  36 E15       30.01F
MCCOOK         SUNNY     83  45  26 E10       29.99F

...EASTERN NEBRASKA...

CITY           SKY/WX    TMP DP  RH WIND       PRES   REMARKS
NORFOLK        SUNNY     71  36  27 E10       30.06F
SO SIOUX CITY  SUNNY     71  36  27 NE5       30.07F
TEKAMAH        SUNNY     74  39  28 NE7       30.05F
COLUMBUS       SUNNY     72  39  30 E9        30.07F
ALBION         SUNNY     70  37  29 SE9       30.06F
OMAHA EPPLEY   SUNNY     75  39  27 NE3       30.05F
MILLARD        SUNNY     74  43  33 E5        30.05F
LINCOLN        SUNNY     74  47  38 NE7       30.05F
NEBRASKA CITY  SUNNY     74  34  22 E5        30.04F
BEATRICE       SUNNY     75  47  36 E8        30.03S
FALLS CITY     SUNNY     78  46  32 CALM      30.02F

...NORTHERN KANSAS...

CITY           SKY/WX    TMP DP  RH WIND       PRES   REMARKS
GOODLAND       SUNNY     84  40  21 S13       30.02F
HILL CITY      SUNNY     88  45  22 S12       29.99F
NORTON         CLEAR     82  41  23 E10       29.99F
PHILLIPSBURG   SUNNY     86  54  32 E9        29.98F
SMITH CENTER   SUNNY     81  55  41 SE10      30.00F
BELOIT         SUNNY     82  61  47 E5        29.98S
HAYS           SUNNY     88  48  25 S12       29.99S
RUSSELL        SUNNY     87  49  26 SE12      29.97F
CONCORDIA      SUNNY     82  59  45 E9        29.99F
SALINA         SUNNY     88  57  34 S9        29.97F
TOPEKA         SUNNY     82  57  42 E7        30.01F



USA.gov is the U.S. government's official web portal to all federal, state and local government web resources and services.